Regional Weather Roundup
Issued by NWS Little Rock, AR

Home | Current Version | Previous Version | Text Only | Print | Product List | Glossary On
Versions: 1 2 3 4 5 6 7 8 9 10 11 12 13 14 15 16 17 18 19 20 21 22 23 24 25 26 27 28 29 30 31 32 33 34 35 36 37 38 39 40 41 42 43 44 45 46 47 48 49 50
000
ASUS44 KLZK 020405
RWRLZK

WEATHER ROUNDUP FOR ARKANSAS
NATIONAL WEATHER SERVICE LITTLE ROCK AR
1100 PM CDT WED APR 01 2015

NOTE: "FAIR" INDICATES FEW OR NO CLOUDS BELOW 12,000 FEET WITH NO
SIGNIFICANT WEATHER AND/OR OBSTRUCTIONS TO VISIBILITY.

ARZ001-003-010-029-020500-
NORTHWEST ARKANSAS

CITY           SKY/WX    TMP DP  RH WIND       PRES   REMARKS
FAYETTEVILLE   CLEAR     63  57  81 S12       29.84S
FORT SMITH     CLEAR     63  57  81 NE7       29.84S
HARRISON       CLEAR     60  57  89 S9          N/A
BENTONVILLE    CLEAR     63  54  72 S7        29.84R
ROGERS         CLEAR     64  55  72 S10       29.85R
SILOAM SPGS    CLEAR     64  55  72 S14       29.84S
HIGHFILL       CLEAR     65  57  75 S14       29.83R
$$

ARZ004-005-016-020500-
NORTH CENTRAL ARKANSAS

CITY           SKY/WX    TMP DP  RH WIND       PRES   REMARKS
BATESVILLE     CLOUDY    64  59  82 SE3       29.91R
FLIPPIN        MOCLDY    61  55  82 SE5       29.88F
MTN HOME       MOCLDY    60  58  92 SE6       29.88F
$$

ARZ040-041-020500-
WEST CENTRAL ARKANSAS

CITY           SKY/WX    TMP DP  RH WIND       PRES   REMARKS
MENA           PTCLDY    72  61  68 S8        29.87F
MOUNT IDA      PTCLDY    60  60 100 CALM      29.86R
$$

ARZ009-017-025-026-028-020500-
NORTHEAST ARKANSAS

CITY           SKY/WX    TMP DP  RH WIND       PRES   REMARKS
CORNING        TSTM      64  63  94 S15       29.92R
JONESBORO      CLOUDY    66  61  84 SW5       29.92S THUNDER
NEWPORT        RAIN      67  65  93 S16       29.93F
BLYTHEVILLE    MOCLDY    65  60  84 S9        29.95R
$$

ARZ022-023-033-042-044-020500-
CENTRAL ARKANSAS

CITY           SKY/WX    TMP DP  RH WIND       PRES   REMARKS
LITTLE ROCK    TSTM      64  60  87 SE6       29.93F
N LITTLE ROCK  CLOUDY    63  62  97 S9        29.93
JACKSONVILLE   CLOUDY    64  62  94 SE7       29.92F
SEARCY         RAIN      63  61  93 S12       29.95R
HOT SPRINGS    MOCLDY    62  60  93 E5        29.91R
RUSSELLVILLE   MOCLDY    62  60  93 CALM      29.87F
CLINTON        FAIR      59  59 100 CALM      29.92R FOG
$$

ARZ036-020500-
EAST ARKANSAS

CITY           SKY/WX    TMP DP  RH WIND       PRES   REMARKS
WEST MEMPHIS   CLOUDY    70  62  76 S13       29.93F
$$

ARZ050-053-066-070-073-020500-
SOUTHWEST ARKANSAS

CITY           SKY/WX    TMP DP  RH WIND       PRES   REMARKS
ARKADELPHIA    FAIR      67  64  90 CALM      29.91F
CAMDEN         MOCLDY    72  59  64 MISG      29.93S
TEXARKANA      LGT RAIN  71  64  78 S8        29.89F
EL DORADO      PTCLDY    69  63  81 S12       29.95R
DE QUEEN       PTCLDY    71  61  70 S8        29.86S
$$

ARZ056-057-069-020500-
SOUTHEAST ARKANSAS

CITY           SKY/WX    TMP DP  RH WIND       PRES   REMARKS
PINE BLUFF     CLOUDY    72  59  63 SW12      29.95R
STUTTGART      CLOUDY    70  61  73 W14G21    29.98R
MONTICELLO     PTCLDY    71  58  63 SW8       29.95R

$$





USA.gov is the U.S. government's official web portal to all federal, state and local government web resources and services.